Watertown, WI

6:36 PM CST on February 24, 2017 (GMT -0600)
Watertown Municipal

Weather History for KRYV - May, 2013

Change the Weather History Date:

Wednesday, May 22, 2013

  Actual Average Record
Temperature  
Mean Temperature 62 °F -  
Max Temperature 68 °F 73 °F 91 °F (1925)
Min Temperature 54 °F 48 °F 32 °F (1967)
Degree Days  
Heating Degree Days 4    
Growing Degree Days 12 (Base 50)    
Moisture  
Dew Point 58 °F    
Average Humidity 93    
Maximum Humidity 99    
Minimum Humidity 83    
Precipitation  
Precipitation 1.02 in - - ()
Sea Level Pressure  
Sea Level Pressure 29.67 in    
Wind  
Wind Speed 3 mph (ENE)    
Max Wind Speed 12 mph    
Max Gust Speed 16 mph    
Visibility 9 miles    
Events Rain , Thunderstorm    
Averages and records for this station are not official NWS values.
T = Trace of Precipitation, MM = Missing Value Source: NWS Daily Summary

Daily Weather History Graph

Daily Weather History Graph

Search for Another Location

Airport or City:

Trip Planner

Search our weather history database for the weather conditions in past years. The results will help you decide how hot, cold, wet, or windy it might be!

Date:

Astronomy

May. 22, 2013 Rise Set
Actual Time 5:24 AM CDT 8:19 PM CDT
Civil Twilight 4:50 AM CDT 8:53 PM CDT
Nautical Twilight 4:08 AM CDT 9:35 PM CDT
Astronomical Twilight 3:18 AM CDT 10:26 PM CDT
Moon 5:37 PM CDT (5/22) 3:33 AM CDT (5/22)
Length of Visible Light 16h 02m
Length of Day
14h 54m
Waxing Gibbous, 91% of the Moon is Illuminated
May 22
Waxing Gibbous
May 24
Full
May 31
Last Quarter
Jun 8
New
Jun 16
First Quarter

Hourly Weather History & Observations

Time (CDT) Temp. Dew Point Humidity Pressure Visibility Wind Dir Wind Speed Gust Speed Precip Events Conditions
12:15 AM 58.5 °F 55.8 °F 91% 29.67 in 10.0 mi Calm Calm - N/A   Clear
12:35 AM 58.5 °F 55.9 °F 91% 29.67 in 10.0 mi Calm Calm - N/A   Clear
12:55 AM 57.2 °F 54.9 °F 92% 29.67 in 10.0 mi Calm Calm - N/A   Clear
1:15 AM 56.5 °F 54.7 °F 94% 29.68 in 10.0 mi Calm Calm - N/A   Clear
1:35 AM 56.7 °F 55.0 °F 94% 29.67 in 10.0 mi Calm Calm - N/A   Clear
1:55 AM 55.9 °F 54.7 °F 96% 29.67 in 10.0 mi Calm Calm - N/A   Clear
2:15 AM 56.1 °F 54.3 °F 94% 29.67 in 10.0 mi Calm Calm - N/A   Clear
2:35 AM 56.5 °F 55.2 °F 96% 29.67 in 10.0 mi Calm Calm - N/A   Clear
2:55 AM 55.4 °F 54.3 °F 96% 29.67 in 7.0 mi Calm Calm - N/A   Clear
3:15 AM 55.4 °F 54.9 °F 98% 29.67 in 10.0 mi Calm Calm - N/A   Mostly Cloudy
3:35 AM 55.8 °F 54.3 °F 95% 29.67 in 10.0 mi Calm Calm - N/A   Overcast
3:55 AM 57.4 °F 56.3 °F 96% 29.67 in 10.0 mi Calm Calm - N/A   Overcast
4:15 AM 57.0 °F 55.9 °F 96% 29.67 in 10.0 mi Calm Calm - N/A   Mostly Cloudy
4:35 AM 56.8 °F 55.0 °F 94% 29.65 in 10.0 mi ENE 4.6 mph - N/A   Scattered Clouds
4:55 AM 56.7 °F 54.5 °F 92% 29.64 in 10.0 mi East 4.6 mph - N/A   Scattered Clouds
5:15 AM 57.4 °F 55.2 °F 92% 29.63 in 10.0 mi ENE 5.8 mph - N/A   Clear
5:35 AM 59.2 °F 56.3 °F 90% 29.63 in 10.0 mi ENE 4.6 mph - N/A   Clear
5:55 AM 60.3 °F 56.3 °F 87% 29.64 in 10.0 mi ENE 3.5 mph - N/A   Mostly Cloudy
6:15 AM 60.6 °F 57.2 °F 88% 29.65 in 10.0 mi ENE 4.6 mph - N/A   Overcast
6:35 AM 61.0 °F 57.2 °F 87% 29.65 in 10.0 mi ENE 3.5 mph - N/A   Overcast
6:55 AM 61.7 °F 57.4 °F 86% 29.65 in 10.0 mi East 5.8 mph - N/A   Overcast
7:15 AM 62.1 °F 57.2 °F 84% 29.64 in 10.0 mi East 4.6 mph - N/A   Overcast
7:35 AM 62.6 °F 57.6 °F 84% 29.64 in 10.0 mi East 5.8 mph - N/A   Overcast
7:55 AM 62.6 °F 58.6 °F 87% 29.64 in 10.0 mi ESE 4.6 mph - N/A   Overcast
8:15 AM 63.1 °F 59.4 °F 87% 29.64 in 10.0 mi Calm Calm - N/A Rain Light Rain
8:35 AM 63.0 °F 60.4 °F 91% 29.64 in 7.0 mi Calm Calm - 0.05 in   Overcast
9:55 AM 63.3 °F 61.9 °F 95% 29.64 in 5.0 mi South 3.5 mph - 0.13 in Rain Light Rain
10:15 AM 63.5 °F 62.2 °F 96% 29.63 in 5.0 mi Calm Calm - 0.01 in Rain Light Rain
10:35 AM 64.0 °F 62.6 °F 95% 29.64 in 5.0 mi Calm Calm - 0.02 in Rain Light Rain
11:15 AM 64.8 °F 63.0 °F 94% 29.64 in 10.0 mi Calm Calm - N/A   Overcast
11:35 AM 64.9 °F 62.6 °F 92% 29.65 in 10.0 mi South 3.5 mph - N/A   Overcast
11:55 AM 64.9 °F 62.2 °F 91% 29.65 in 10.0 mi South 3.5 mph - N/A Rain Light Rain
12:15 PM 65.3 °F 62.6 °F 91% 29.65 in 10.0 mi Calm Calm - N/A   Overcast
1:15 PM 68.2 °F 62.8 °F 83% 29.64 in 10.0 mi Calm Calm - N/A   Overcast
1:35 PM 66.2 °F 62.1 °F 86% 29.64 in 10.0 mi ENE 9.2 mph - N/A   Overcast
1:55 PM 63.0 °F 60.3 °F 91% 29.64 in 10.0 mi NE 11.5 mph - N/A   Light Drizzle
2:15 PM 62.6 °F 60.8 °F 94% 29.65 in 10.0 mi NE 8.1 mph - 0.01 in Rain Light Rain
2:35 PM 63.0 °F 61.2 °F 94% 29.66 in 7.0 mi ESE 4.6 mph - 0.01 in   Overcast
2:55 PM 63.3 °F 61.5 °F 94% 29.65 in 7.0 mi NE 4.6 mph - 0.01 in Rain Light Rain
3:15 PM 64.4 °F 62.2 °F 93% 29.65 in 10.0 mi NNE 4.6 mph - 0.01 in   Overcast
3:35 PM 64.8 °F 61.5 °F 89% 29.65 in 10.0 mi ENE 5.8 mph - 0.01 in   Overcast
4:35 PM 62.8 °F 59.9 °F 90% 29.65 in 10.0 mi ENE 10.4 mph - N/A Thunderstorm Unknown
4:55 PM 61.7 °F 59.2 °F 91% 29.65 in 10.0 mi NE 4.6 mph - N/A Thunderstorm Overcast
5:15 PM 61.0 °F 59.4 °F 94% 29.67 in 1.5 mi ENE 4.6 mph - 0.18 in Rain Heavy Rain
5:55 PM 59.5 °F 58.6 °F 97% 29.68 in 3.0 mi ENE 6.9 mph - 0.40 in Rain , Thunderstorm Heavy Thunderstorms and Rain
6:15 PM 59.2 °F 58.3 °F 97% 29.69 in 3.0 mi East 5.8 mph - 0.07 in Rain Rain
6:35 PM 59.0 °F 58.3 °F 97% 29.67 in 5.0 mi ENE 11.5 mph - 0.14 in Rain Light Rain
6:55 PM 58.6 °F 58.1 °F 98% 29.68 in 10.0 mi NE 9.2 mph - 0.14 in   Overcast
7:15 PM 58.6 °F 58.1 °F 98% 29.69 in 10.0 mi ENE 4.6 mph - N/A   Overcast
7:35 PM 58.8 °F 57.9 °F 97% 29.69 in 10.0 mi East 8.1 mph - N/A   Overcast
7:55 PM 58.3 °F 56.7 °F 94% 29.71 in 10.0 mi East 6.9 mph - N/A   Overcast
8:15 PM 57.4 °F 55.6 °F 94% 29.72 in 10.0 mi ESE 5.8 mph - N/A   Overcast
8:35 PM 56.8 °F 54.9 °F 93% 29.72 in 10.0 mi East 6.9 mph - N/A   Overcast
8:55 PM 56.3 °F 55.2 °F 96% 29.72 in 7.0 mi ENE 5.8 mph - 0.03 in Rain Rain
9:15 PM 56.3 °F 54.9 °F 95% 29.74 in 10.0 mi East 3.5 mph - 0.02 in Rain Light Rain
9:35 PM 55.9 °F 54.9 °F 96% 29.74 in 10.0 mi ESE 3.5 mph - 0.04 in Rain Light Rain
9:55 PM 55.8 °F 54.7 °F 96% 29.75 in 7.0 mi East 3.5 mph - 0.09 in Rain Rain
10:15 PM 55.4 °F 54.7 °F 97% 29.75 in 5.0 mi ENE 5.8 mph - 0.04 in Rain Light Rain
10:35 PM 55.6 °F 55.0 °F 98% 29.76 in 7.0 mi Calm Calm - 0.07 in Rain Light Rain
10:55 PM 55.4 °F 54.9 °F 98% 29.76 in 5.0 mi Calm Calm - 0.09 in   Heavy Drizzle
11:15 PM 55.4 °F 55.0 °F 99% 29.77 in 4.0 mi Calm Calm - 0.03 in   Drizzle
11:35 PM 55.4 °F 54.9 °F 98% 29.77 in 5.0 mi North 9.2 mph - 0.04 in Rain Rain
11:55 PM 54.1 °F 53.2 °F 97% 29.78 in 10.0 mi NNE 11.5 mph 16.1 mph 0.05 in Rain Rain